Satellite-Ground Cal/Val Region Overpasses Predictions

Prediction of Satellite NPP Overpassing Cal/Val Region: PacNW

Region Location: (Latitude: 10.00, Longitude: 139.50) to (Latitude: 22.70, Longitude: 165.60).

Table of predicted overpasses for the next 14.0 days since TLE Epoch: 10/10/2018
Interval Starting Time Starting Location Ending Time Ending Location
1 10/10/2018 16:02:26 ( 22.68, 144.42) 10/10/2018 16:06:01 ( 10.06, 141.42)
2 10/11/2018 03:11:30 ( 10.02, 151.95) 10/11/2018 03:15:06 ( 22.70, 148.94)
3 10/11/2018 15:43:24 ( 22.65, 149.17) 10/11/2018 15:46:59 ( 10.03, 146.17)
4 10/12/2018 02:52:29 ( 10.04, 156.70) 10/12/2018 02:56:04 ( 22.67, 153.71)
5 10/12/2018 15:24:22 ( 22.68, 153.93) 10/12/2018 15:27:58 ( 10.00, 150.92)
6 10/13/2018 02:33:26 ( 10.01, 161.47) 10/13/2018 02:37:02 ( 22.69, 158.46)
7 10/13/2018 15:05:20 ( 22.66, 158.68) 10/13/2018 15:08:55 ( 10.04, 155.68)
8 10/14/2018 02:15:11 ( 12.74, 165.60) 10/14/2018 02:18:00 ( 22.66, 163.22)
9 10/14/2018 03:55:55 ( 10.04, 140.84) 10/14/2018 03:57:33 ( 15.80, 139.51)
10 10/14/2018 14:46:18 ( 22.69, 163.44) 10/14/2018 14:49:54 ( 10.01, 160.43)
11 10/15/2018 03:36:53 ( 10.01, 145.60) 10/15/2018 03:40:29 ( 22.69, 142.59)
12 10/15/2018 14:30:21 ( 11.81, 165.60) 10/15/2018 14:30:51 ( 10.04, 165.19)
13 10/15/2018 16:08:46 ( 22.66, 142.81) 10/15/2018 16:12:21 ( 10.04, 139.82)
14 10/16/2018 03:17:51 ( 10.04, 150.35) 10/16/2018 03:21:26 ( 22.66, 147.36)
15 10/16/2018 15:49:44 ( 22.69, 147.58) 10/16/2018 15:53:20 ( 10.01, 144.57)
16 10/17/2018 02:58:49 ( 10.01, 155.11) 10/17/2018 03:02:25 ( 22.69, 152.10)
17 10/17/2018 15:30:42 ( 22.66, 152.33) 10/17/2018 15:34:17 ( 10.04, 149.33)
18 10/18/2018 02:39:47 ( 10.03, 159.86) 10/18/2018 02:43:22 ( 22.65, 156.87)
19 10/18/2018 15:11:40 ( 22.70, 157.09) 10/18/2018 15:15:16 ( 10.02, 154.08)
20 10/19/2018 02:20:46 ( 10.06, 164.61) 10/19/2018 02:24:21 ( 22.68, 161.62)
21 10/19/2018 14:52:38 ( 22.67, 161.84) 10/19/2018 14:56:13 ( 10.05, 158.84)
22 10/20/2018 03:43:13 ( 10.03, 144.00) 10/20/2018 03:46:48 ( 22.65, 141.00)
23 10/20/2018 14:34:46 ( 18.60, 165.59) 10/20/2018 14:37:12 ( 10.02, 163.59)
24 10/20/2018 16:15:06 ( 22.70, 141.23) 10/20/2018 16:17:07 ( 15.60, 139.51)
25 10/21/2018 03:24:12 ( 10.06, 148.75) 10/21/2018 03:27:47 ( 22.68, 145.75)
26 10/21/2018 15:56:04 ( 22.67, 145.97) 10/21/2018 15:59:39 ( 10.05, 142.98)
27 10/22/2018 03:05:09 ( 10.02, 153.51) 10/22/2018 03:08:44 ( 22.65, 150.52)
28 10/22/2018 15:37:03 ( 22.65, 150.72) 10/22/2018 15:40:38 ( 10.02, 147.73)
29 10/23/2018 02:46:08 ( 10.05, 158.26) 10/23/2018 02:49:43 ( 22.67, 155.26)
30 10/23/2018 15:18:01 ( 22.68, 155.49) 10/23/2018 15:21:36 ( 10.06, 152.49)


NCC Satellite Cal/Val Overpasses Prediction Service
